TimeMST,TemperatureF,Dew PointF,Humidity,Sea Level PressureIn,VisibilityMPH,Wind Direction,Wind SpeedMPH,Gust SpeedMPH,PrecipitationIn,Events,Conditions,WindDirDegrees,DateUTC
12:53 AM,39.9,23.0,51,30.06,10.0,SSE,6.9,-,N/A,,Clear,160,2013-03-03 07:53:00
1:53 AM,39.0,24.1,55,30.02,10.0,SE,5.8,-,N/A,,Clear,140,2013-03-03 08:53:00
2:53 AM,34.0,25.0,70,30.01,10.0,Calm,Calm,-,N/A,,Clear,0,2013-03-03 09:53:00
4:53 AM,42.1,24.1,49,29.95,10.0,South,6.9,-,N/A,,Clear,170,2013-03-03 11:53:00
5:53 AM,44.1,24.1,45,29.94,10.0,SSW,5.8,-,N/A,,Overcast,200,2013-03-03 12:53:00
6:53 AM,41.0,26.1,55,29.98,10.0,SSE,3.5,-,N/A,,Overcast,160,2013-03-03 13:53:00
7:53 AM,46.9,26.1,44,29.95,10.0,SW,9.2,-,N/A,,Overcast,230,2013-03-03 14:53:00
8:53 AM,48.9,26.1,41,29.94,10.0,South,6.9,-,N/A,,Clear,190,2013-03-03 15:53:00
9:53 AM,51.1,26.1,38,29.92,10.0,SW,9.2,-,N/A,,Scattered Clouds,220,2013-03-03 16:53:00
10:53 AM,54.0,21.9,29,29.90,10.0,SSW,13.8,23.0,N/A,,Scattered Clouds,200,2013-03-03 17:53:00
11:53 AM,57.0,23.0,27,29.87,10.0,SSW,16.1,31.1,N/A,,Clear,210,2013-03-03 18:53:00
12:53 PM,57.0,24.1,28,29.84,10.0,SSW,16.1,25.3,N/A,,Clear,200,2013-03-03 19:53:00
1:53 PM,57.0,24.1,28,29.82,10.0,South,12.7,25.3,N/A,,Mostly Cloudy,180,2013-03-03 20:53:00
2:53 PM,57.0,25.0,29,29.83,10.0,SSW,16.1,23.0,N/A,,Mostly Cloudy,200,2013-03-03 21:53:00
3:53 PM,55.0,25.0,31,29.83,10.0,South,13.8,21.9,N/A,,Overcast,190,2013-03-03 22:53:00
4:53 PM,54.0,26.1,34,29.80,10.0,South,9.2,20.7,N/A,,Overcast,190,2013-03-03 23:53:00
5:53 PM,53.1,26.1,35,29.78,10.0,SSW,6.9,-,N/A,,Overcast,200,2013-03-04 00:53:00
6:53 PM,50.0,27.0,41,29.80,10.0,South,6.9,-,N/A,,Overcast,180,2013-03-04 01:53:00
7:53 PM,48.0,28.0,46,29.78,10.0,SSW,4.6,-,N/A,,Overcast,200,2013-03-04 02:53:00
8:53 PM,45.0,34.0,65,29.81,10.0,NE,8.1,-,N/A,,Overcast,40,2013-03-04 03:53:00
9:53 PM,44.1,36.0,73,29.84,6.0,NNE,3.5,-,0.01,Rain,Light Rain,30,2013-03-04 04:53:00
10:06 PM,42.8,35.6,76,29.92,7.0,Variable,3.5,-,0.01,Rain,Light Rain,0,2013-03-04 05:06:00
10:13 PM,42.8,35.6,76,29.92,10.0,Calm,Calm,-,0.02,Rain,Light Rain,0,2013-03-04 05:13:00
10:53 PM,41.0,37.9,89,29.83,10.0,SSE,5.8,-,0.03,Rain,Light Rain,150,2013-03-04 05:53:00
11:19 PM,41.0,37.4,87,29.92,10.0,SSE,5.8,-,0.01,Rain,Light Rain,150,2013-03-04 06:19:00
11:53 PM,39.9,37.9,93,29.82,10.0,Calm,Calm,-,0.01,,Overcast,0,2013-03-04 06:53:00